Snowfall_Accumulation
nan nan nan nan nan nan nan 0.0 0.2 0.0 0.0 0.3 0.0 0.2 0.0 nan 0.0 0.0 0.0 0.0 0.0 0.0 0.0 0.1 0.2 0.1 0.1 0.0 0.0 0.0 0.0 0.0 0.9 0.0 0.0 0.0 0.0 0.0 0.0 3.0 1.3 1.4 1.7 9.4
nan nan nan nan nan nan 0.0 0.0 0.0 0.0 0.0 0.5 0.1 0.0 0.0 0.0 0.0 0.0 0.0 0.0 0.0 0.0 0.0 0.1 0.0 0.0 0.0 0.0 0.0 0.0 0.0 0.1 0.4 0.3 0.2 0.0 0.0 0.0 0.0 0.0 0.2 1.9 7.7 9.9
nan nan nan nan nan nan 0.0 0.0 0.3 0.0 0.0 0.0 0.0 0.0 0.0 0.0 0.0 0.0 0.0 0.0 0.0 0.0 0.0 0.0 0.0 0.0 0.0 0.0 0.0 nan nan 0.0 0.0 0.3 0.1 0.1 0.1 0.0 0.0 0.0 4.7 0.9 6.5 3.3
nan nan nan nan nan nan 0.0 0.0 0.1 0.0 0.4 0.0 0.0 0.0 0.0 0.0 0.0 0.0 0.0 0.0 0.0 0.0 0.0 0.0 0.0 0.0 0.0 0.0 nan 0.0 0.0 0.0 0.0 0.0 0.0 0.0 0.0 0.0 0.0 2.7 0.1 3.5 1.8 2.2
nan nan nan nan nan nan 0.0 0.0 0.0 0.0 0.0 0.0 0.0 0.0 0.0 0.0 0.0 0.0 0.0 0.0 0.0 0.0 0.0 0.0 0.0 0.0 0.0 0.0 0.0 0.1 0.0 0.0 0.0 0.0 0.0 0.0 0.0 0.0 0.0 0.0 0.0 0.0 0.0 0.0
nan nan nan nan nan nan 0.0 0.0 0.0 0.0 nan 0.0 0.0 0.0 0.0 0.0 0.0 0.0 0.0 0.0 0.0 0.0 0.0 0.0 0.0 0.0 0.0 0.0 0.0 0.0 0.0 0.1 0.1 1.2 0.0 0.0 0.2 0.0 0.0 0.0 0.0 0.0 0.2 0.0
nan nan nan nan nan nan 0.0 0.0 0.0 0.0 0.0 0.0 0.0 0.0 0.0 0.0 0.0 0.0 0.0 0.0 0.0 0.0 0.0 0.0 0.0 0.0 0.0 0.0 0.0 0.0 0.0 0.0 0.0 1.0 0.0 1.3 0.1 0.0 0.0 0.0 0.0 0.0 0.0 0.0
nan nan nan nan nan nan 0.0 0.0 0.0 0.0 0.0 0.0 0.0 0.0 0.0 0.0 0.0 0.0 0.0 0.0 0.0 0.0 0.0 0.0 0.0 0.0 0.0 0.0 0.0 0.0 0.0 0.0 0.2 1.0 1.0 0.0 0.0 0.0 0.0 0.0 0.0 0.0 0.0 0.0
nan nan nan nan nan nan 0.0 0.0 0.0 0.0 0.0 0.0 0.0 0.0 0.0 0.0 0.0 0.0 0.0 0.0 0.0 0.0 0.0 0.0 0.1 0.3 0.0 0.0 0.0 0.0 0.0 0.0 0.0 0.3 0.6 0.8 0.0 0.0 0.0 0.0 0.0 0.0 0.0 0.0
nan nan nan nan nan nan 0.0 0.0 0.0 0.0 0.0 0.0 0.0 0.0 0.0 0.0 0.0 0.0 0.0 0.0 0.0 0.0 0.0 0.2 0.2 0.0 0.0 0.0 0.0 0.0 0.0 0.1 0.5 0.3 0.8 0.1 0.0 0.0 0.0 0.0 0.0 0.0 0.0 0.0
nan nan nan nan nan nan 0.0 0.0 0.0 0.0 0.0 0.0 0.0 0.0 0.0 0.0 0.0 0.0 0.0 0.1 0.0 0.0 0.0 0.1 0.0 0.0 0.0 0.0 0.0 0.0 0.0 0.3 0.6 0.5 0.4 3.1 0.0 0.0 0.0 0.0 0.0 0.0 0.0 0.0
nan nan nan nan nan nan nan 0.0 0.0 0.0 0.0 0.0 0.0 0.0 0.0 0.0 0.0 0.0 0.0 0.0 0.0 0.0 0.0 0.0 0.0 0.0 0.0 0.0 0.1 0.0 0.1 0.0 0.0 0.0 0.0 0.0 0.0 0.0 0.0 0.0 0.0 0.0 0.0 0.0
nan nan nan nan nan nan nan 0.0 0.0 0.0 0.0 0.0 0.0 0.0 0.0 0.0 0.0 0.0 0.0 0.0 0.0 0.0 0.0 0.0 0.0 0.1 0.0 0.0 0.0 0.0 0.0 0.0 0.0 0.0 0.0 0.0 0.0 0.0 0.0 0.0 0.0 0.0 0.0 0.0
nan nan nan nan nan nan nan 0.0 0.0 0.0 0.0 0.1 0.0 0.0 0.0 0.0 0.0 0.0 0.0 0.0 0.0 0.0 0.0 0.0 0.0 0.1 0.0 0.0 0.0 0.0 0.0 0.0 0.0 0.0 0.0 0.0 0.0 0.0 0.0 0.0 0.0 0.0 0.0 0.0
nan nan nan nan nan nan nan 0.0 0.0 0.0 0.0 0.1 0.0 0.0 0.0 0.0 0.0 0.0 0.0 0.0 0.0 0.0 0.0 0.0 0.1 0.0 0.1 0.0 0.0 0.0 0.0 0.0 0.0 0.0 0.0 0.0 0.0 0.0 0.0 0.0 0.0 0.0 0.0 0.0
nan nan nan nan nan nan 0.0 0.0 0.0 0.0 0.0 0.3 0.7 0.0 0.0 0.0 0.0 0.0 0.0 0.0 0.0 0.0 0.0 0.0 0.0 0.0 0.0 2.4 0.4 0.0 0.0 0.0 0.0 0.0 0.0 0.0 0.0 0.0 0.0 0.0 0.0 0.0 0.0 0.0
nan nan nan nan nan 0.0 0.0 0.0 0.0 nan 0.0 0.1 1.7 0.2 0.0 0.0 0.0 0.0 0.0 0.0 0.0 0.0 0.0 0.2 0.0 0.0 0.0 1.5 1.8 0.1 0.0 0.0 0.0 0.0 0.0 0.0 0.0 0.4 0.3 0.6 1.1 0.7 0.6 0.1
nan nan nan nan nan nan 0.0 0.0 nan nan 0.0 0.2 7.2 0.7 0.0 0.0 0.0 0.0 0.0 0.0 0.0 0.0 0.0 0.2 0.1 0.0 0.0 2.7 0.2 0.0 0.0 0.0 0.0 0.3 0.3 0.7 1.0 1.0 1.0 0.1 0.1 0.1 0.0 0.1
nan nan nan 0.0 0.0 0.0 0.0 nan nan 0.0 0.3 4.7 4.6 1.9 3.3 0.0 0.1 0.0 0.0 0.0 0.9 0.0 0.3 0.1 0.0 0.2 4.0 1.2 0.5 0.3 0.3 0.5 1.4 1.6 1.1 0.7 0.6 0.2 0.1 0.0 0.0 0.1 0.1 0.0
nan 0.0 0.0 0.6 0.0 nan nan 0.0 0.3 0.6 0.2 1.4 3.0 0.1 1.4 0.0 0.0 0.4 0.5 1.2 3.0 8.6 0.9 0.1 2.7 1.1 2.1 1.6 0.5 0.5 1.1 1.6 1.0 1.0 0.5 0.1 0.1 0.1 0.1 0.1 0.0 0.0 0.0 0.0
0.0 0.4 0.5 0.0 nan 0.0 0.1 2.6 4.9 2.6 6.5 0.7 0.5 0.2 0.8 0.0 2.4 2.6 1.1 7.4 4.2 11.6 0.6 1.8 3.1 2.5 1.0 0.9 0.9 0.9 0.7 0.4 0.2 0.0 0.0 0.0 0.1 0.1 0.0 0.0 0.0 0.0 0.0 0.0
0.0 0.0 0.0 0.0 0.8 4.1 7.2 7.0 3.5 5.6 3.8 2.4 2.4 0.8 0.7 0.3 0.1 2.6 7.7 8.4 10.0 11.7 0.6 7.9 6.7 1.8 0.7 0.7 1.2 1.4 0.0 0.0 0.0 0.0 0.0 0.0 0.0 0.0 0.0 0.0 0.0 0.0 0.0 0.0
0.0 0.5 7.9 7.0 10.4 40.2 15.5 10.8 12.4 10.4 1.8 2.1 2.2 3.3 1.4 2.2 0.8 7.2 7.7 17.2 12.3 1.1 12.6 4.4 2.1 1.3 0.8 0.2 0.1 0.0 0.0 0.0 0.0 0.0 0.0 0.0 0.0 0.0 0.0 0.0 0.0 0.0 0.0 0.0
5.4 18.8 53.4 16.1 14.0 2.6 3.0 2.2 2.3 0.7 2.0 2.3 2.6 4.5 3.4 4.0 10.1 6.2 16.8 4.1 5.6 16.4 12.7 6.2 1.9 0.8 0.1 0.0 0.1 0.1 0.1 0.0 0.1 0.0 0.0 0.0 0.0 0.0 0.0 0.0 0.0 0.0 0.0 0.0
21.6 17.7 34.0 10.6 0.7 1.5 2.0 1.4 1.3 0.9 0.8 1.1 3.3 3.6 2.8 7.8 12.1 3.6 5.7 12.9 11.5 4.4 3.8 2.1 0.7 0.1 0.1 0.1 0.2 0.2 0.1 0.3 1.0 0.9 1.2 1.1 0.7 0.4 0.3 0.1 0.0 0.0 0.0 0.0
20.0 21.4 13.0 0.9 3.4 4.6 3.4 3.6 2.6 0.9 1.1 1.2 3.1 9.7 15.5 11.6 8.9 13.8 9.5 13.2 6.6 3.2 2.2 1.3 1.1 0.7 0.5 0.3 0.1 0.1 0.0 0.1 0.1 0.0 0.1 0.1 0.1 0.2 0.2 0.2 0.2 0.2 0.2 0.6
30.5 19.7 0.3 1.0 2.0 1.8 0.7 0.6 0.6 0.6 2.1 7.5 8.4 18.7 10.7 7.5 15.3 11.4 6.0 11.4 2.3 1.4 0.8 0.8 0.3 0.7 0.5 1.0 0.9 0.7 0.4 0.2 0.1 0.1 0.1 0.1 0.0 0.1 0.2 0.2 0.1 0.2 0.3 1.9
Water_Equivalent
nan nan nan nan nan nan nan 0.00 0.08 0.00 0.00 0.13 0.01 0.09 0.00 nan 0.00 0.00 0.00 0.00 0.00 0.00 0.00 0.02 0.05 0.02 0.02 0.00 0.00 0.00 0.00 0.01 0.26 0.00 0.00 0.00 0.00 0.01 0.00 0.74 0.27 0.39 0.38 1.54
nan nan nan nan nan nan 0.00 0.00 0.00 0.00 0.00 0.19 0.04 0.00 0.00 0.00 0.00 0.00 0.00 0.00 0.00 0.00 0.00 0.02 0.00 0.00 0.00 0.00 0.00 0.00 0.00 0.04 0.11 0.09 0.07 0.00 0.01 0.00 0.00 0.00 0.06 0.41 1.32 1.85
nan nan nan nan nan nan 0.00 0.00 0.13 0.00 0.00 0.00 0.00 0.00 0.00 0.00 0.00 0.00 0.00 0.00 0.00 0.00 0.00 0.00 0.00 0.00 0.00 0.00 0.00 nan nan 0.00 0.00 0.09 0.01 0.02 0.02 0.00 0.00 0.00 1.00 0.21 1.30 0.76
nan nan nan nan nan nan 0.00 0.00 0.04 0.00 0.14 0.00 0.00 0.00 0.00 0.00 0.00 0.00 0.00 0.00 0.00 0.00 0.00 0.00 0.00 0.00 0.00 0.00 nan 0.00 0.00 0.01 0.00 0.00 0.00 0.00 0.00 0.00 0.00 0.60 0.02 0.73 0.42 0.53
nan nan nan nan nan nan 0.00 0.00 0.01 0.00 0.00 0.00 0.00 0.00 0.00 0.00 0.00 0.00 0.00 0.00 0.00 0.00 0.00 0.00 0.00 0.00 0.00 0.00 0.00 0.03 0.00 0.01 0.00 0.00 0.00 0.00 0.00 0.00 0.00 0.00 0.00 0.00 0.00 0.01
nan nan nan nan nan nan 0.00 0.00 0.00 0.00 nan 0.00 0.00 0.01 0.00 0.00 0.00 0.00 0.00 0.00 0.00 0.00 0.00 0.00 0.00 0.00 0.00 0.00 0.00 0.00 0.01 0.03 0.02 0.28 0.00 0.00 0.06 0.00 0.00 0.00 0.00 0.00 0.05 0.00
nan nan nan nan nan nan 0.00 0.00 0.00 0.00 0.00 0.00 0.00 0.00 0.00 0.00 0.00 0.00 0.00 0.00 0.00 0.00 0.00 0.00 0.00 0.00 0.00 0.00 0.00 0.00 0.00 0.00 0.00 0.24 0.01 0.30 0.02 0.00 0.00 0.00 0.00 0.00 0.00 0.00
nan nan nan nan nan nan 0.00 0.00 0.00 0.00 0.00 0.00 0.00 0.00 0.00 0.00 0.00 0.00 0.00 0.00 0.00 0.00 0.00 0.00 0.00 0.00 0.00 0.00 0.00 0.00 0.00 0.00 0.06 0.24 0.22 0.00 0.00 0.00 0.00 0.00 0.00 0.00 0.00 0.00
nan nan nan nan nan nan 0.00 0.00 0.00 0.00 0.00 0.00 0.00 0.00 0.00 0.00 0.00 0.00 0.00 0.00 0.00 0.00 0.00 0.00 0.02 0.10 0.00 0.00 0.00 0.00 0.00 0.00 0.00 0.10 0.11 0.18 0.00 0.00 0.00 0.00 0.02 0.00 0.00 0.00
nan nan nan nan nan nan 0.00 0.00 0.00 0.00 0.00 0.00 0.00 0.00 0.00 0.00 0.00 0.00 0.00 0.00 0.00 0.00 0.00 0.07 0.08 0.00 0.00 0.00 0.00 0.00 0.00 0.02 0.10 0.08 0.16 0.02 0.00 0.00 0.00 0.01 0.00 0.00 0.00 0.00
nan nan nan nan nan nan 0.00 0.00 0.00 0.00 0.00 0.00 0.00 0.00 0.00 0.00 0.00 0.01 0.00 0.02 0.00 0.00 0.01 0.03 0.00 0.00 0.00 0.00 0.00 0.00 0.00 0.07 0.14 0.10 0.08 0.62 0.00 0.00 0.00 0.00 0.00 0.00 0.00 0.00
nan nan nan nan nan nan nan 0.00 0.00 0.00 0.00 0.00 0.00 0.00 0.00 0.00 0.00 0.00 0.00 0.01 0.00 0.00 0.00 0.00 0.00 0.00 0.00 0.00 0.02 0.00 0.01 0.00 0.00 0.00 0.01 0.00 0.00 0.00 0.00 0.00 0.00 0.00 0.00 0.00
nan nan nan nan nan nan nan 0.00 0.00 0.00 0.00 0.00 0.00 0.00 0.00 0.00 0.00 0.00 0.00 0.00 0.00 0.01 0.00 0.00 0.00 0.01 0.00 0.00 0.00 0.00 0.00 0.00 0.00 0.00 0.00 0.00 0.00 0.00 0.00 0.00 0.00 0.00 0.00 0.00
nan nan nan nan nan nan nan 0.00 0.00 0.00 0.00 0.02 0.00 0.00 0.00 0.00 0.00 0.00 0.00 0.00 0.00 0.00 0.00 0.00 0.00 0.01 0.00 0.00 0.00 0.00 0.00 0.00 0.00 0.00 0.00 0.00 0.00 0.00 0.00 0.00 0.00 0.00 0.00 0.00
nan nan nan nan nan nan nan 0.00 0.00 0.00 0.00 0.05 0.00 0.00 0.00 0.00 0.00 0.00 0.00 0.00 0.00 0.00 0.00 0.00 0.02 0.00 0.01 0.00 0.00 0.00 0.00 0.00 0.00 0.00 0.00 0.00 0.00 0.00 0.00 0.00 0.00 0.00 0.00 0.00
nan nan nan nan nan nan 0.00 0.00 0.00 0.00 0.00 0.11 0.25 0.00 0.00 0.00 0.00 0.00 0.00 0.00 0.00 0.00 0.00 0.00 0.00 0.00 0.01 0.53 0.09 0.00 0.00 0.00 0.00 0.00 0.00 0.00 0.00 0.00 0.00 0.00 0.00 0.00 0.00 0.00
nan nan nan nan nan 0.00 0.00 0.00 0.00 nan 0.00 0.04 0.60 0.07 0.00 0.00 0.00 0.00 0.00 0.00 0.00 0.00 0.01 0.06 0.00 0.00 0.00 0.31 0.35 0.01 0.00 0.00 0.00 0.00 0.00 0.00 0.00 0.07 0.06 0.11 0.21 0.14 0.10 0.02
nan nan nan nan nan nan 0.00 0.00 nan nan 0.00 0.07 2.36 0.25 0.00 0.00 0.01 0.00 0.00 0.00 0.00 0.00 0.00 0.04 0.03 0.00 0.00 0.56 0.02 0.00 0.00 0.00 0.01 0.04 0.05 0.12 0.18 0.17 0.18 0.02 0.01 0.01 0.01 0.01
nan nan nan 0.00 0.00 0.00 0.00 nan nan 0.00 0.07 1.03 1.08 0.62 1.12 0.00 0.03 0.00 0.00 0.00 0.23 0.00 0.08 0.02 0.00 0.05 0.77 0.15 0.07 0.05 0.05 0.07 0.22 0.28 0.20 0.12 0.10 0.04 0.01 0.00 0.01 0.02 0.02 0.01
nan 0.00 0.00 0.25 0.00 nan nan 0.00 0.11 0.19 0.05 0.31 0.67 0.02 0.33 0.01 0.01 0.10 0.12 0.27 0.61 2.32 0.21 0.02 0.49 0.22 0.32 0.27 0.08 0.08 0.19 0.28 0.18 0.16 0.08 0.03 0.03 0.02 0.01 0.02 0.01 0.01 0.00 0.00
0.00 0.14 0.21 0.00 nan 0.00 0.03 0.78 1.18 0.57 1.29 0.16 0.13 0.06 0.17 0.01 0.60 0.60 0.26 1.58 0.94 2.22 0.19 0.42 0.71 0.41 0.18 0.15 0.15 0.15 0.13 0.07 0.04 0.01 0.01 0.01 0.01 0.01 0.00 0.00 0.00 0.00 0.00 0.00
0.00 0.00 0.00 0.00 0.33 1.31 1.72 1.64 0.97 1.10 0.97 0.44 0.46 0.22 0.14 0.10 0.03 0.60 1.64 1.61 1.84 1.69 0.09 1.35 1.01 0.26 0.11 0.11 0.20 0.23 0.00 0.01 0.01 0.00 0.00 0.00 0.00 0.00 0.00 0.00 0.00 0.00 0.00 0.00
0.00 0.19 2.55 1.85 2.53 6.34 2.55 1.61 2.38 2.12 0.52 0.61 0.58 0.84 0.27 0.45 0.20 1.51 1.39 2.80 1.94 0.17 2.06 0.51 0.27 0.19 0.12 0.04 0.01 0.00 0.00 0.00 0.00 0.00 0.00 0.00 0.00 0.00 0.00 0.00 0.00 0.00 0.00 0.00
1.31 5.07 9.28 2.87 2.46 0.56 0.75 0.51 0.60 0.26 0.62 0.57 0.53 1.04 0.68 0.70 1.72 1.01 2.86 0.64 0.85 2.25 1.61 0.79 0.27 0.13 0.02 0.01 0.01 0.01 0.02 0.02 0.02 0.00 0.00 0.00 0.00 0.00 0.00 0.00 0.00 0.00 0.00 0.00
5.38 4.06 5.37 2.13 0.23 0.48 0.56 0.50 0.45 0.30 0.20 0.34 0.72 0.86 0.54 1.69 2.15 0.60 1.13 1.80 1.67 0.59 0.57 0.42 0.16 0.03 0.02 0.04 0.04 0.04 0.03 0.10 0.26 0.25 0.33 0.31 0.19 0.11 0.09 0.02 0.01 0.00 0.00 0.00
5.31 4.87 2.48 0.16 0.87 1.22 0.95 1.21 0.84 0.28 0.26 0.33 0.80 1.87 2.42 1.88 1.47 2.02 1.45 1.85 0.90 0.61 0.49 0.38 0.31 0.18 0.13 0.08 0.02 0.02 0.01 0.02 0.02 0.01 0.02 0.02 0.03 0.06 0.06 0.05 0.06 0.06 0.07 0.14
7.33 4.12 0.08 0.28 0.56 0.53 0.23 0.19 0.18 0.09 0.52 1.54 1.55 2.52 1.57 1.35 2.15 1.58 1.15 1.84 0.49 0.35 0.22 0.20 0.08 0.18 0.13 0.24 0.21 0.16 0.08 0.05 0.03 0.02 0.02 0.02 0.01 0.02 0.05 0.04 0.02 0.04 0.06 0.33
SL_Ratio
nan nan nan nan nan nan nan nan 2.5 nan nan 2.5 2.4 2.5 nan nan nan nan nan nan nan nan nan 3.4 3.6 3.5 3.2 nan nan nan nan 3.3 3.5 3.3 nan nan 2.9 3.4 2.9 4.1 4.8 3.6 4.4 6.1
nan nan nan nan nan nan nan nan nan nan nan 2.7 2.5 nan nan nan nan nan nan nan nan nan nan 3.8 nan 0.0 nan nan nan nan nan 3.1 3.7 3.8 3.5 nan 3.3 nan nan nan 3.1 4.6 5.8 5.4
nan nan nan nan nan nan nan nan 2.5 2.5 nan nan nan nan nan nan nan nan nan nan nan nan nan nan 5.0 nan nan nan nan nan nan nan nan 3.4 4.7 3.3 3.6 3.3 0.0 3.3 4.7 4.5 5.0 4.4
nan nan nan nan nan nan nan nan 2.5 2.1 2.6 nan nan nan nan nan nan nan nan nan nan nan nan nan nan nan nan nan nan nan nan 3.2 nan nan nan nan nan nan nan 4.4 3.9 4.8 4.3 4.2
nan nan nan nan nan nan nan nan 2.2 nan nan nan nan nan nan nan nan nan nan nan nan nan nan nan nan nan nan nan nan 3.1 3.3 3.5 nan nan nan nan nan nan nan nan nan nan nan 3.3
nan nan nan nan nan nan nan nan nan nan nan nan 2.9 2.4 nan nan nan nan nan nan nan nan nan nan nan nan nan nan nan nan 2.8 3.3 3.3 4.2 nan nan 3.4 nan nan nan nan nan 3.6 5.0
nan nan nan nan nan nan nan nan nan nan 0.0 nan 2.0 nan nan nan nan nan nan nan nan nan nan nan nan nan nan nan nan nan 4.0 nan nan 3.9 3.2 4.4 3.8 nan nan nan nan nan nan nan
nan nan nan nan nan nan nan nan nan nan nan nan nan nan nan nan nan nan nan nan nan nan nan nan nan nan nan nan nan nan nan nan 3.6 4.1 4.6 4.0 nan nan nan nan nan nan nan nan
nan nan nan nan nan nan nan nan nan nan nan nan nan nan nan nan nan nan nan nan nan nan nan nan 3.8 2.7 nan nan 10.0 nan nan nan nan 2.7 4.9 4.4 nan nan nan nan 2.9 nan nan nan
nan nan nan nan nan nan nan nan nan nan nan nan nan nan nan nan nan nan nan nan nan nan nan 2.5 2.5 3.0 nan nan nan 6.7 5.7 4.1 4.8 3.9 5.2 3.2 nan nan nan 4.6 2.5 nan nan nan
nan nan nan nan nan nan nan nan nan nan nan nan nan nan nan nan nan 2.6 nan 2.7 nan nan 2.6 2.5 nan nan nan nan nan nan 3.3 3.8 4.1 5.6 5.2 5.0 nan nan 4.4 nan nan nan nan nan
nan nan nan nan nan nan nan nan nan nan nan nan nan nan nan nan nan nan nan 2.5 2.3 0.0 nan nan nan nan nan nan 4.1 nan 4.0 nan 10.0 5.0 3.2 nan nan nan nan nan nan nan nan nan
nan nan nan nan nan nan nan nan nan nan nan nan nan nan nan nan nan nan nan nan nan 2.4 nan nan nan 5.5 nan nan nan nan nan nan nan nan nan nan nan nan nan nan nan nan nan nan
nan nan nan nan nan nan nan nan nan nan nan 2.5 nan nan nan nan nan nan nan nan nan nan nan nan 4.0 4.0 nan nan nan nan nan nan nan nan nan nan nan nan nan nan nan nan nan nan
nan nan nan nan nan nan nan nan nan nan nan 2.7 nan nan nan nan nan nan nan nan nan nan nan 4.0 4.0 nan 6.2 nan 5.0 nan nan nan nan 5.7 nan nan nan nan nan nan nan nan nan nan
nan nan nan nan nan nan nan nan nan nan nan 2.5 2.9 nan nan nan nan nan nan nan nan nan nan 5.0 nan nan 6.1 4.5 4.0 nan nan nan nan 5.5 nan nan nan nan nan nan nan nan nan 0.0
nan nan nan nan nan nan nan nan nan nan nan 2.7 2.8 2.5 nan nan nan nan nan nan nan nan 3.2 3.1 nan nan nan 4.8 5.1 7.2 nan nan 0.0 nan nan 7.1 6.0 6.2 5.9 5.8 5.5 5.5 5.7 5.9
nan nan nan nan nan nan nan nan nan nan nan 3.4 3.0 2.9 2.2 nan 2.9 3.3 nan nan nan 3.3 nan 3.6 3.0 nan 3.6 4.9 7.1 7.5 nan 3.3 6.7 6.2 5.8 6.0 5.6 5.6 5.6 5.5 5.5 5.8 5.2 5.0
nan nan nan nan nan nan nan nan nan nan 3.9 4.6 4.2 3.0 2.9 nan 3.1 5.8 nan nan 3.9 nan 4.0 4.3 nan 4.7 5.2 7.6 6.6 6.6 6.4 6.4 6.3 5.6 5.6 5.6 5.8 5.7 5.5 5.4 5.2 5.1 5.1 4.8
nan nan 2.5 2.5 nan nan nan 2.5 2.5 3.0 3.3 4.5 4.4 2.9 4.2 3.4 3.9 3.8 4.3 4.3 4.9 3.7 4.4 5.3 5.5 5.1 6.5 6.1 6.0 5.8 5.7 5.6 5.5 6.5 6.2 5.7 5.3 5.1 4.9 4.9 4.8 5.0 0.0 nan
nan 2.6 2.5 nan nan nan 2.4 3.3 4.2 4.5 5.0 4.2 4.0 4.2 4.6 5.7 4.0 4.3 4.3 4.7 4.5 5.2 3.1 4.4 4.4 6.1 5.9 6.1 5.9 5.6 5.5 5.5 5.4 4.8 4.5 4.8 5.0 5.0 4.0 6.7 3.3 10.0 nan nan
nan 5.0 nan nan 2.5 3.1 4.2 4.3 3.7 5.1 3.9 5.5 5.4 3.8 4.7 2.8 2.5 4.2 4.7 5.2 5.5 6.9 6.4 5.9 6.6 6.9 6.6 6.2 6.2 6.1 4.2 4.7 4.1 5.0 5.7 0.0 nan nan nan nan nan nan nan nan
nan 2.7 3.1 3.8 4.1 6.3 6.1 6.7 5.2 4.9 3.5 3.4 3.8 3.9 5.2 4.8 4.1 4.8 5.5 6.1 6.4 6.4 6.1 8.7 7.9 6.7 6.5 6.1 5.7 nan nan nan nan nan nan nan nan nan nan nan nan nan nan nan
4.1 3.7 5.8 5.6 5.7 4.5 4.1 4.3 3.9 2.8 3.3 4.0 4.8 4.3 4.9 5.7 5.9 6.2 5.9 6.5 6.5 7.3 7.9 7.9 6.9 6.5 5.6 4.5 4.3 4.5 3.8 2.9 2.5 2.0 2.0 2.9 0.0 nan nan nan nan nan nan nan
4.0 4.4 6.3 5.0 3.0 3.1 3.6 2.8 2.8 3.1 3.8 3.3 4.6 4.2 5.2 4.6 5.6 6.0 5.0 7.2 6.9 7.5 6.7 5.1 4.5 3.4 3.4 3.6 4.0 4.0 2.9 3.5 3.7 3.4 3.7 3.7 3.9 3.5 3.4 3.0 2.9 2.5 2.7 3.3
3.8 4.4 5.2 5.7 3.9 3.8 3.6 3.0 3.1 3.4 4.3 3.6 3.9 5.2 6.4 6.1 6.1 6.8 6.5 7.1 7.4 5.2 4.4 3.3 3.5 3.9 3.5 3.4 3.1 3.0 2.9 3.2 3.3 3.3 3.2 3.2 3.5 3.7 3.6 3.6 3.8 3.4 3.5 4.5
4.2 4.8 3.6 3.5 3.5 3.3 3.2 3.1 3.3 6.1 4.0 4.9 5.4 7.4 6.8 5.6 7.1 7.2 5.2 6.2 4.6 4.0 3.7 3.8 3.8 4.1 3.8 4.2 4.5 4.5 4.4 4.3 4.1 3.6 3.8 3.9 3.8 4.4 5.1 5.5 3.7 4.2 4.2 5.7